Time,TemperatureF,DewpointF,PressureIn,WindDirection,WindDirectionDegrees,WindSpeedMPH,WindSpeedGustMPH,Humidity,HourlyPrecipIn,Conditions,Clouds,dailyrainin,SoftwareType,DateUTC
2013-01-24 00:00:00,13.6,12.2,30.14,SSW,203,0.0,1.0,94,0.00,,OVC OVC///CB,0.00,WUHU216DAVISVP2,2013-01-24 05:00:00,
2013-01-24 00:01:00,13.6,12.2,30.14,SSW,203,0.0,1.0,94,0.00,,OVC OVC///CB,0.00,WUHU216DAVISVP2,2013-01-24 05:01:00,
2013-01-24 00:03:00,13.6,12.2,30.14,SSW,202,0.0,1.0,94,0.00,,OVC OVC///CB,0.00,WUHU216DAVISVP2,2013-01-24 05:03:00,
2013-01-24 00:08:00,13.6,12.2,30.14,SSW,203,0.0,1.0,94,0.00,,OVC OVC///CB,0.00,WUHU216DAVISVP2,2013-01-24 05:08:00,
2013-01-24 00:13:00,13.5,12.1,30.14,SSW,203,0.0,0.0,94,0.00,,OVC OVC///CB,0.00,WUHU216DAVISVP2,2013-01-24 05:13:00,
2013-01-24 00:18:00,13.5,12.1,30.14,SSW,203,0.0,0.0,94,0.00,,OVC OVC///CB,0.00,WUHU216DAVISVP2,2013-01-24 05:18:00,
2013-01-24 00:23:00,13.5,12.1,30.14,SSW,203,0.0,0.0,94,0.00,,OVC OVC///CB,0.00,WUHU216DAVISVP2,2013-01-24 05:23:00,
2013-01-24 00:28:00,13.6,12.2,30.15,SSW,202,0.0,0.0,94,0.00,,OVC OVC///CB,0.00,WUHU216DAVISVP2,2013-01-24 05:28:00,
2013-01-24 00:33:00,13.7,12.3,30.15,SSW,203,0.0,0.0,94,0.00,,OVC OVC///CB,0.00,WUHU216DAVISVP2,2013-01-24 05:33:00,
2013-01-24 00:38:00,13.7,12.3,30.14,SSW,203,0.0,0.0,94,0.00,,OVC OVC///CB,0.00,WUHU216DAVISVP2,2013-01-24 05:38:00,
2013-01-24 00:43:00,13.8,12.4,30.14,SSW,203,0.0,0.0,94,0.00,,OVC OVC///CB,0.00,WUHU216DAVISVP2,2013-01-24 05:43:00,
2013-01-24 00:48:00,13.8,12.4,30.14,SSW,203,0.0,0.0,94,0.00,,OVC OVC///CB,0.00,WUHU216DAVISVP2,2013-01-24 05:48:00,
2013-01-24 00:53:00,13.8,12.4,30.14,SSW,203,0.0,0.0,94,0.00,,OVC OVC///CB,0.00,WUHU216DAVISVP2,2013-01-24 05:53:00,
2013-01-24 00:59:00,13.8,12.4,30.14,SSW,203,0.0,0.0,94,0.00,,OVC OVC///CB,0.00,WUHU216DAVISVP2,2013-01-24 05:59:00,
2013-01-24 01:04:00,13.7,12.3,30.14,SSW,203,0.0,0.0,94,0.00,,OVC OVC///CB,0.00,WUHU216DAVISVP2,2013-01-24 06:04:00,
2013-01-24 01:09:00,13.6,12.2,30.14,SSW,203,0.0,0.0,94,0.00,,OVC OVC///CB,0.00,WUHU216DAVISVP2,2013-01-24 06:09:00,
2013-01-24 01:14:00,13.4,12.0,30.14,SSW,203,0.0,0.0,94,0.00,,OVC OVC///CB,0.00,WUHU216DAVISVP2,2013-01-24 06:14:00,
2013-01-24 01:19:00,13.1,11.7,30.14,SSW,203,0.0,0.0,94,0.00,,OVC OVC///CB,0.00,WUHU216DAVISVP2,2013-01-24 06:19:00,
2013-01-24 01:24:00,12.8,11.5,30.14,SSW,203,0.0,0.0,94,0.00,,OVC OVC///CB,0.00,WUHU216DAVISVP2,2013-01-24 06:24:00,
2013-01-24 01:29:00,12.5,11.2,30.15,SSW,203,0.0,0.0,94,0.00,,OVC OVC///CB,0.00,WUHU216DAVISVP2,2013-01-24 06:29:00,
2013-01-24 01:34:00,12.3,11.0,30.15,SSW,202,0.0,0.0,94,0.00,,OVC OVC///CB,0.00,WUHU216DAVISVP2,2013-01-24 06:34:00,
2013-01-24 01:39:00,12.2,10.9,30.15,SSW,203,0.0,0.0,94,0.00,,OVC OVC///CB,0.00,WUHU216DAVISVP2,2013-01-24 06:39:00,
2013-01-24 01:44:00,11.9,10.6,30.15,SSW,203,0.0,0.0,94,0.00,,OVC OVC///CB,0.00,WUHU216DAVISVP2,2013-01-24 06:44:00,
2013-01-24 01:49:00,11.7,10.4,30.15,SSW,203,0.0,0.0,94,0.00,,OVC OVC///CB,0.00,WUHU216DAVISVP2,2013-01-24 06:49:00,
2013-01-24 01:54:00,11.4,10.3,30.15,SSW,203,0.0,0.0,95,0.00,,OVC OVC///CB,0.00,WUHU216DAVISVP2,2013-01-24 06:54:00,
2013-01-24 01:59:00,11.2,10.1,30.16,SSW,203,0.0,0.0,95,0.00,,OVC OVC///CB,0.00,WUHU216DAVISVP2,2013-01-24 06:59:00,
2013-01-24 02:04:00,11.2,10.1,30.16,SSW,202,0.0,0.0,95,0.00,,OVC OVC///CB,0.00,WUHU216DAVISVP2,2013-01-24 07:04:00,
2013-01-24 02:09:00,11.3,10.2,30.16,SSW,203,0.0,0.0,95,0.00,,OVC OVC///CB,0.00,WUHU216DAVISVP2,2013-01-24 07:09:00,
2013-01-24 02:14:00,11.5,10.6,30.17,SSW,202,0.0,0.0,96,0.00,,OVC OVC///CB,0.00,WUHU216DAVISVP2,2013-01-24 07:14:00,
2013-01-24 02:19:00,11.7,10.8,30.17,SSW,203,0.0,0.0,96,0.00,,OVC OVC///CB,0.00,WUHU216DAVISVP2,2013-01-24 07:19:00,
2013-01-24 02:24:00,12.1,11.2,30.17,WNW,295,0.0,2.0,96,0.00,,OVC OVC///CB,0.00,WUHU216DAVISVP2,2013-01-24 07:24:00,
2013-01-24 02:29:00,12.4,11.5,30.17,West,262,0.0,2.0,96,0.00,,OVC OVC///CB,0.00,WUHU216DAVISVP2,2013-01-24 07:29:00,
2013-01-24 02:34:00,12.7,11.8,30.18,West,262,3.0,3.0,96,0.00,,OVC OVC///CB,0.00,WUHU216DAVISVP2,2013-01-24 07:34:00,
2013-01-24 02:39:00,12.9,11.8,30.18,WNW,293,1.0,3.0,95,0.00,,OVC OVC///CB,0.00,WUHU216DAVISVP2,2013-01-24 07:39:00,
2013-01-24 02:44:00,13.0,11.9,30.18,NW,315,0.0,3.0,95,0.00,,OVC OVC///CB,0.00,WUHU216DAVISVP2,2013-01-24 07:44:00,
2013-01-24 02:49:00,13.0,11.7,30.18,West,280,0.0,3.0,94,0.00,,OVC OVC///CB,0.00,WUHU216DAVISVP2,2013-01-24 07:49:00,
2013-01-24 02:54:00,13.0,11.7,30.18,WNW,285,1.0,3.0,94,0.00,,OVC OVC///CB,0.00,WUHU216DAVISVP2,2013-01-24 07:54:00,
2013-01-24 02:59:00,12.9,11.6,30.19,WNW,285,0.0,2.0,94,0.00,,OVC OVC///CB,0.00,WUHU216DAVISVP2,2013-01-24 07:59:00,
2013-01-24 03:04:00,12.8,11.2,30.19,West,264,1.0,2.0,93,0.00,,OVC OVC///CB,0.00,WUHU216DAVISVP2,2013-01-24 08:04:00,
2013-01-24 03:09:00,12.8,11.2,30.19,WNW,287,0.0,3.0,93,0.00,,OVC OVC///CB,0.00,WUHU216DAVISVP2,2013-01-24 08:09:00,
2013-01-24 03:14:00,12.6,11.0,30.19,WNW,294,0.0,3.0,93,0.00,,OVC OVC///CB,0.00,WUHU216DAVISVP2,2013-01-24 08:14:00,
2013-01-24 03:19:00,12.6,11.0,30.20,WNW,291,1.0,3.0,93,0.00,,OVC OVC///CB,0.00,WUHU216DAVISVP2,2013-01-24 08:19:00,
2013-01-24 03:24:00,12.5,10.9,30.20,West,264,0.0,3.0,93,0.00,,OVC OVC///CB,0.00,WUHU216DAVISVP2,2013-01-24 08:24:00,
2013-01-24 03:29:00,12.4,10.8,30.20,NW,314,0.0,3.0,93,0.00,,OVC OVC///CB,0.00,WUHU216DAVISVP2,2013-01-24 08:29:00,
2013-01-24 03:34:00,12.4,10.8,30.20,WNW,292,0.0,3.0,93,0.00,,OVC OVC///CB,0.00,WUHU216DAVISVP2,2013-01-24 08:34:00,
2013-01-24 03:39:00,12.2,10.6,30.21,West,260,0.0,3.0,93,0.00,,OVC OVC///CB,0.00,WUHU216DAVISVP2,2013-01-24 08:39:00,
2013-01-24 03:44:00,12.2,10.6,30.21,WNW,291,0.0,3.0,93,0.00,,OVC OVC///CB,0.00,WUHU216DAVISVP2,2013-01-24 08:44:00,
2013-01-24 03:49:00,12.1,10.5,30.21,WNW,287,1.0,3.0,93,0.00,,OVC OVC///CB,0.00,WUHU216DAVISVP2,2013-01-24 08:49:00,
2013-01-24 03:54:00,12.1,10.5,30.22,WNW,298,2.0,4.0,93,0.00,,OVC OVC///CB,0.00,WUHU216DAVISVP2,2013-01-24 08:54:00,
2013-01-24 03:59:00,12.1,10.5,30.22,WNW,294,1.0,4.0,93,0.00,,OVC OVC///CB,0.00,WUHU216DAVISVP2,2013-01-24 08:59:00,
2013-01-24 04:04:00,12.1,10.5,30.22,NW,314,1.0,5.0,93,0.00,,OVC OVC///CB,0.00,WUHU216DAVISVP2,2013-01-24 09:04:00,
2013-01-24 04:09:00,12.0,10.4,30.23,NW,311,0.0,5.0,93,0.00,,OVC OVC///CB,0.00,WUHU216DAVISVP2,2013-01-24 09:09:00,
2013-01-24 04:14:00,11.9,10.3,30.23,WNW,288,0.0,5.0,93,0.00,,OVC OVC///CB,0.00,WUHU216DAVISVP2,2013-01-24 09:14:00,
2013-01-24 04:19:00,11.8,10.2,30.24,WNW,283,2.0,4.0,93,0.00,,OVC OVC///CB,0.00,WUHU216DAVISVP2,2013-01-24 09:19:00,
2013-01-24 04:24:00,11.7,10.1,30.24,NW,325,1.0,4.0,93,0.00,,OVC OVC///CB,0.00,WUHU216DAVISVP2,2013-01-24 09:24:00,
2013-01-24 04:29:00,11.6,10.0,30.24,NW,323,0.0,4.0,93,0.00,,OVC OVC///CB,0.00,WUHU216DAVISVP2,2013-01-24 09:29:00,
2013-01-24 04:34:00,11.5,9.9,30.24,NW,322,0.0,5.0,93,0.00,,OVC OVC///CB,0.00,WUHU216DAVISVP2,2013-01-24 09:34:00,
2013-01-24 04:39:00,11.5,9.9,30.24,WNW,295,0.0,5.0,93,0.00,,OVC OVC///CB,0.00,WUHU216DAVISVP2,2013-01-24 09:39:00,
2013-01-24 04:44:00,11.4,9.8,30.25,WNW,290,0.0,5.0,93,0.00,,OVC OVC///CB,0.00,WUHU216DAVISVP2,2013-01-24 09:44:00,
2013-01-24 04:49:00,11.4,9.8,30.25,West,277,0.0,5.0,93,0.00,,OVC OVC///CB,0.00,WUHU216DAVISVP2,2013-01-24 09:49:00,
2013-01-24 04:54:00,11.3,10.0,30.25,WNW,295,1.0,4.0,94,0.00,,OVC OVC///CB,0.00,WUHU216DAVISVP2,2013-01-24 09:54:00,
2013-01-24 04:59:00,11.3,10.0,30.26,WNW,290,0.0,4.0,94,0.00,,OVC OVC///CB,0.00,WUHU216DAVISVP2,2013-01-24 09:59:00,
2013-01-24 05:04:00,11.3,10.0,30.26,WNW,289,1.0,4.0,94,0.00,,OVC OVC///CB,0.00,WUHU216DAVISVP2,2013-01-24 10:04:00,
2013-01-24 05:09:00,11.2,9.9,30.26,WNW,295,0.0,4.0,94,0.00,,OVC OVC///CB,0.00,WUHU216DAVISVP2,2013-01-24 10:09:00,
2013-01-24 05:14:00,11.1,9.8,30.27,NW,313,1.0,4.0,94,0.00,,OVC OVC///CB,0.00,WUHU216DAVISVP2,2013-01-24 10:14:00,
2013-01-24 05:19:00,11.2,9.9,30.27,NW,315,1.0,4.0,94,0.00,,OVC OVC///CB,0.00,WUHU216DAVISVP2,2013-01-24 10:19:00,
2013-01-24 05:24:00,11.1,9.8,30.28,NNW,328,2.0,5.0,94,0.00,,OVC OVC///CB,0.00,WUHU216DAVISVP2,2013-01-24 10:24:00,
2013-01-24 05:29:00,10.9,9.3,30.28,WNW,302,0.0,5.0,93,0.00,,OVC OVC///CB,0.00,WUHU216DAVISVP2,2013-01-24 10:29:00,
2013-01-24 05:34:00,10.8,9.5,30.29,WNW,290,0.0,5.0,94,0.00,,OVC OVC///CB,0.00,WUHU216DAVISVP2,2013-01-24 10:34:00,
2013-01-24 05:39:00,10.8,9.5,30.29,NNW,336,2.0,3.0,94,0.00,,OVC OVC///CB,0.00,WUHU216DAVISVP2,2013-01-24 10:39:00,
2013-01-24 05:44:00,10.8,9.5,30.30,WNW,295,0.0,3.0,94,0.00,,OVC OVC///CB,0.00,WUHU216DAVISVP2,2013-01-24 10:44:00,
2013-01-24 05:49:00,10.8,9.5,30.30,WNW,283,0.0,3.0,94,0.00,,OVC OVC///CB,0.00,WUHU216DAVISVP2,2013-01-24 10:49:00,
2013-01-24 05:54:00,10.8,9.5,30.31,NW,313,2.0,3.0,94,0.00,,OVC OVC///CB,0.00,WUHU216DAVISVP2,2013-01-24 10:54:00,
2013-01-24 05:59:00,10.8,9.5,30.31,NW,311,0.0,3.0,94,0.00,,OVC OVC///CB,0.00,WUHU216DAVISVP2,2013-01-24 10:59:00,
2013-01-24 06:04:00,10.8,9.5,30.31,NW,319,1.0,3.0,94,0.00,,OVC OVC///CB,0.00,WUHU216DAVISVP2,2013-01-24 11:04:00,
2013-01-24 06:09:00,10.7,9.4,30.32,West,274,0.0,3.0,94,0.00,,OVC OVC///CB,0.00,WUHU216DAVISVP2,2013-01-24 11:09:00,
2013-01-24 06:14:00,10.7,9.4,30.32,NW,326,0.0,4.0,94,0.00,,OVC OVC///CB,0.00,WUHU216DAVISVP2,2013-01-24 11:14:00,
2013-01-24 06:19:00,10.7,9.4,30.32,NNW,334,0.0,4.0,94,0.00,,OVC OVC///CB,0.00,WUHU216DAVISVP2,2013-01-24 11:19:00,
2013-01-24 06:24:00,10.7,9.4,30.33,WNW,300,0.0,4.0,94,0.00,,OVC OVC///CB,0.00,WUHU216DAVISVP2,2013-01-24 11:24:00,
2013-01-24 06:29:00,10.8,9.5,30.33,WNW,287,0.0,4.0,94,0.00,,OVC OVC///CB,0.00,WUHU216DAVISVP2,2013-01-24 11:29:00,
2013-01-24 06:34:00,10.9,9.6,30.34,NW,305,0.0,4.0,94,0.00,,OVC OVC///CB,0.00,WUHU216DAVISVP2,2013-01-24 11:34:00,
2013-01-24 06:39:00,10.9,9.6,30.34,NW,316,0.0,4.0,94,0.00,,OVC OVC///CB,0.00,WUHU216DAVISVP2,2013-01-24 11:39:00,
2013-01-24 06:45:00,11.0,9.7,30.35,NW,319,1.0,4.0,94,0.00,,OVC OVC///CB,0.00,WUHU216DAVISVP2,2013-01-24 11:45:00,
2013-01-24 06:50:00,11.0,9.7,30.35,WNW,298,0.0,3.0,94,0.00,,OVC OVC///CB,0.00,WUHU216DAVISVP2,2013-01-24 11:50:00,
2013-01-24 06:55:00,11.2,9.9,30.36,NW,311,0.0,3.0,94,0.00,,OVC OVC///CB,0.00,WUHU216DAVISVP2,2013-01-24 11:55:00,
2013-01-24 07:00:00,11.4,10.1,30.36,NNW,333,1.0,3.0,94,0.00,,OVC OVC///CB,0.00,WUHU216DAVISVP2,2013-01-24 12:00:00,
2013-01-24 07:05:00,11.5,10.2,30.36,NNW,333,4.0,5.0,94,0.00,,OVC OVC///CB,0.00,WUHU216DAVISVP2,2013-01-24 12:05:00,
2013-01-24 07:10:00,11.7,10.4,30.37,NW,311,1.0,5.0,94,0.00,,OVC OVC///CB,0.00,WUHU216DAVISVP2,2013-01-24 12:10:00,
2013-01-24 07:15:00,11.8,10.5,30.37,West,264,0.0,5.0,94,0.00,,OVC OVC///CB,0.00,WUHU216DAVISVP2,2013-01-24 12:15:00,
2013-01-24 07:20:00,11.8,10.5,30.38,WNW,291,3.0,5.0,94,0.00,,OVC OVC///CB,0.00,WUHU216DAVISVP2,2013-01-24 12:20:00,
2013-01-24 07:25:00,11.8,10.5,30.38,WNW,301,2.0,4.0,94,0.00,,OVC OVC///CB,0.00,WUHU216DAVISVP2,2013-01-24 12:25:00,
2013-01-24 07:30:00,11.8,10.5,30.38,North,352,0.0,5.0,94,0.00,,OVC OVC///CB,0.00,WUHU216DAVISVP2,2013-01-24 12:30:00,
2013-01-24 07:35:00,11.9,10.6,30.39,WNW,297,0.0,5.0,94,0.00,,OVC OVC///CB,0.00,WUHU216DAVISVP2,2013-01-24 12:35:00,
2013-01-24 07:40:00,11.9,10.3,30.39,NNW,332,2.0,5.0,93,0.00,,OVC OVC///CB,0.00,WUHU216DAVISVP2,2013-01-24 12:40:00,
2013-01-24 07:45:00,11.8,10.2,30.40,NW,316,1.0,5.0,93,0.00,,OVC OVC///CB,0.00,WUHU216DAVISVP2,2013-01-24 12:45:00,
2013-01-24 07:50:00,11.8,10.2,30.41,North,6,0.0,6.0,93,0.00,,OVC OVC///CB,0.00,WUHU216DAVISVP2,2013-01-24 12:50:00,
2013-01-24 07:55:00,11.7,10.1,30.41,NW,319,2.0,6.0,93,0.00,,OVC OVC///CB,0.00,WUHU216DAVISVP2,2013-01-24 12:55:00,
2013-01-24 08:00:00,11.7,10.1,30.41,NE,37,0.0,6.0,93,0.00,,OVC OVC///CB,0.00,WUHU216DAVISVP2,2013-01-24 13:00:00,
2013-01-24 08:05:00,11.6,10.0,30.42,NNW,339,1.0,6.0,93,0.00,,OVC OVC///CB,0.00,WUHU216DAVISVP2,2013-01-24 13:05:00,
2013-01-24 08:10:00,11.5,9.9,30.42,WNW,285,1.0,4.0,93,0.00,,OVC OVC///CB,0.00,WUHU216DAVISVP2,2013-01-24 13:10:00,
2013-01-24 08:15:00,11.5,9.9,30.42,WNW,291,0.0,4.0,93,0.00,,OVC OVC///CB,0.00,WUHU216DAVISVP2,2013-01-24 13:15:00,
2013-01-24 08:20:00,11.6,10.0,30.42,WNW,291,1.0,4.0,93,0.00,,OVC OVC///CB,0.00,WUHU216DAVISVP2,2013-01-24 13:20:00,
2013-01-24 08:25:00,11.7,10.1,30.42,WNW,283,0.0,4.0,93,0.00,,OVC OVC///CB,0.00,WUHU216DAVISVP2,2013-01-24 13:25:00,
2013-01-24 08:30:00,11.8,10.2,30.43,West,281,1.0,5.0,93,0.00,,OVC OVC///CB,0.00,WUHU216DAVISVP2,2013-01-24 13:30:00,
2013-01-24 08:35:00,11.9,10.1,30.43,WNW,285,1.0,5.0,92,0.00,,OVC OVC///CB,0.00,WUHU216DAVISVP2,2013-01-24 13:35:00,
2013-01-24 08:40:00,12.0,9.9,30.43,WNW,287,0.0,7.0,91,0.00,,OVC OVC///CB,0.00,WUHU216DAVISVP2,2013-01-24 13:40:00,
2013-01-24 08:45:00,12.0,9.9,30.44,West,276,0.0,7.0,91,0.00,,OVC OVC///CB,0.00,WUHU216DAVISVP2,2013-01-24 13:45:00,
2013-01-24 08:50:00,12.1,10.0,30.44,North,350,3.0,7.0,91,0.00,,OVC OVC///CB,0.00,WUHU216DAVISVP2,2013-01-24 13:50:00,
2013-01-24 08:55:00,12.1,9.8,30.45,WNW,297,1.0,6.0,90,0.00,,OVC OVC///CB,0.00,WUHU216DAVISVP2,2013-01-24 13:55:00,
2013-01-24 09:00:00,12.1,9.8,30.45,NW,304,1.0,8.0,90,0.00,,OVC OVC///CB,0.00,WUHU216DAVISVP2,2013-01-24 14:00:00,
2013-01-24 09:05:00,12.2,9.9,30.45,WNW,301,1.0,8.0,90,0.00,,OVC OVC///CB,0.00,WUHU216DAVISVP2,2013-01-24 14:05:00,
2013-01-24 09:10:00,12.3,10.0,30.46,WNW,295,3.0,8.0,90,0.00,,OVC OVC///CB,0.00,WUHU216DAVISVP2,2013-01-24 14:10:00,
2013-01-24 09:15:00,12.3,10.0,30.46,WNW,302,2.0,9.0,90,0.00,,OVC OVC///CB,0.00,WUHU216DAVISVP2,2013-01-24 14:15:00,
2013-01-24 09:20:00,12.6,10.3,30.46,NNW,336,1.0,9.0,90,0.00,,OVC OVC///CB,0.00,WUHU216DAVISVP2,2013-01-24 14:20:00,
2013-01-24 09:25:00,12.8,10.5,30.47,NW,309,5.0,9.0,90,0.00,,OVC OVC///CB,0.00,WUHU216DAVISVP2,2013-01-24 14:25:00,
2013-01-24 09:30:00,12.8,10.2,30.47,WNW,288,5.0,8.0,89,0.00,,OVC OVC///CB,0.00,WUHU216DAVISVP2,2013-01-24 14:30:00,
2013-01-24 09:35:00,12.9,10.3,30.47,West,263,2.0,9.0,89,0.00,,OVC OVC///CB,0.00,WUHU216DAVISVP2,2013-01-24 14:35:00,
2013-01-24 09:40:00,13.1,10.5,30.48,NW,305,2.0,9.0,89,0.00,,OVC OVC///CB,0.00,WUHU216DAVISVP2,2013-01-24 14:40:00,
2013-01-24 09:45:00,13.4,10.8,30.48,West,281,5.0,9.0,89,0.00,,OVC OVC///CB,0.00,WUHU216DAVISVP2,2013-01-24 14:45:00,
2013-01-24 09:50:00,13.5,10.9,30.49,WNW,295,5.0,9.0,89,0.00,,OVC OVC///CB,0.00,WUHU216DAVISVP2,2013-01-24 14:50:00,
2013-01-24 09:55:00,13.7,10.9,30.49,West,264,0.0,10.0,88,0.00,,OVC OVC///CB,0.00,WUHU216DAVISVP2,2013-01-24 14:55:00,
2013-01-24 10:00:00,13.9,11.1,30.49,WNW,293,3.0,10.0,88,0.00,,OVC OVC///CB,0.00,WUHU216DAVISVP2,2013-01-24 15:00:00,
2013-01-24 10:05:00,14.2,11.4,30.49,WNW,298,3.0,10.0,88,0.00,,OVC OVC///CB,0.00,WUHU216DAVISVP2,2013-01-24 15:05:00,
2013-01-24 10:10:00,14.7,11.9,30.50,WNW,291,4.0,10.0,88,0.00,,OVC OVC///CB,0.00,WUHU216DAVISVP2,2013-01-24 15:10:00,
2013-01-24 10:15:00,14.9,11.8,30.50,West,281,4.0,10.0,87,0.00,,OVC OVC///CB,0.00,WUHU216DAVISVP2,2013-01-24 15:15:00,
2013-01-24 10:20:00,15.3,12.2,30.51,WNW,291,3.0,10.0,87,0.00,,OVC OVC///CB,0.00,WUHU216DAVISVP2,2013-01-24 15:20:00,
2013-01-24 10:25:00,15.6,12.5,30.51,WNW,291,8.0,10.0,87,0.00,,OVC OVC///CB,0.00,WUHU216DAVISVP2,2013-01-24 15:25:00,
2013-01-24 10:30:00,15.6,12.2,30.52,WNW,301,4.0,12.0,86,0.00,,OVC OVC///CB,0.00,WUHU216DAVISVP2,2013-01-24 15:30:00,
2013-01-24 10:35:00,15.9,12.8,30.52,WNW,297,1.0,12.0,87,0.00,,OVC OVC///CB,0.00,WUHU216DAVISVP2,2013-01-24 15:35:00,
2013-01-24 10:40:00,16.1,13.0,30.53,NW,319,2.0,12.0,87,0.00,,OVC OVC///CB,0.00,WUHU216DAVISVP2,2013-01-24 15:40:00,
2013-01-24 10:45:00,16.4,13.3,30.53,NW,305,4.0,12.0,87,0.00,,OVC OVC///CB,0.00,WUHU216DAVISVP2,2013-01-24 15:45:00,
2013-01-24 10:50:00,16.4,13.0,30.53,WNW,302,3.0,11.0,86,0.00,,OVC OVC///CB,0.00,WUHU216DAVISVP2,2013-01-24 15:50:00,
2013-01-24 10:55:00,16.7,13.6,30.54,NW,318,3.0,11.0,87,0.00,,OVC OVC///CB,0.00,WUHU216DAVISVP2,2013-01-24 15:55:00,
2013-01-24 11:00:00,17.2,14.1,30.55,NW,313,5.0,11.0,87,0.00,,OVC OVC///CB,0.00,WUHU216DAVISVP2,2013-01-24 16:00:00,
2013-01-24 11:05:00,17.0,13.6,30.55,WNW,302,2.0,11.0,86,0.00,,OVC OVC///CB,0.00,WUHU216DAVISVP2,2013-01-24 16:05:00,
2013-01-24 11:10:00,17.3,13.9,30.55,West,280,3.0,10.0,86,0.00,,OVC OVC///CB,0.00,WUHU216DAVISVP2,2013-01-24 16:10:00,
2013-01-24 11:15:00,17.3,13.4,30.56,NNW,335,3.0,10.0,84,0.00,,OVC OVC///CB,0.00,WUHU216DAVISVP2,2013-01-24 16:15:00,
2013-01-24 11:20:00,17.5,13.6,30.56,WNW,297,3.0,10.0,84,0.00,,OVC OVC///CB,0.00,WUHU216DAVISVP2,2013-01-24 16:20:00,
2013-01-24 11:25:00,18.0,14.1,30.56,WNW,300,4.0,9.0,84,0.00,,OVC OVC///CB,0.00,WUHU216DAVISVP2,2013-01-24 16:25:00,
2013-01-24 11:30:00,18.3,13.8,30.56,North,349,3.0,12.0,82,0.00,,OVC OVC///CB,0.00,WUHU216DAVISVP2,2013-01-24 16:30:00,
2013-01-24 11:35:00,18.5,13.7,30.56,North,358,4.0,12.0,81,0.00,,OVC OVC///CB,0.00,WUHU216DAVISVP2,2013-01-24 16:35:00,
2013-01-24 11:40:00,18.9,14.7,30.56,NNW,339,9.0,11.0,83,0.00,,OVC OVC///CB,0.00,WUHU216DAVISVP2,2013-01-24 16:40:00,
2013-01-24 11:45:00,18.8,14.0,30.56,WNW,294,4.0,11.0,81,0.00,,OVC OVC///CB,0.00,WUHU216DAVISVP2,2013-01-24 16:45:00,
2013-01-24 11:50:00,18.6,14.4,30.57,NW,308,8.0,10.0,83,0.00,,OVC OVC///CB,0.00,WUHU216DAVISVP2,2013-01-24 16:50:00,
2013-01-24 11:55:00,18.3,14.1,30.57,NNW,344,4.0,10.0,83,0.00,,OVC OVC///CB,0.00,WUHU216DAVISVP2,2013-01-24 16:55:00,
2013-01-24 12:00:00,18.3,13.8,30.57,NW,314,1.0,10.0,82,0.00,,OVC OVC///CB,0.00,WUHU216DAVISVP2,2013-01-24 17:00:00,
2013-01-24 12:05:00,18.8,14.0,30.57,ENE,72,2.0,10.0,81,0.00,,OVC OVC///CB,0.00,WUHU216DAVISVP2,2013-01-24 17:05:00,
2013-01-24 12:10:00,19.0,13.7,30.57,WNW,284,2.0,10.0,79,0.00,,OVC OVC///CB,0.00,WUHU216DAVISVP2,2013-01-24 17:10:00,
2013-01-24 12:15:00,19.4,13.2,30.57,West,262,5.0,10.0,76,0.00,,OVC OVC///CB,0.00,WUHU216DAVISVP2,2013-01-24 17:15:00,
2013-01-24 12:20:00,20.1,12.4,30.56,North,4,4.0,10.0,71,0.00,,OVC OVC///CB,0.00,WUHU216DAVISVP2,2013-01-24 17:20:00,
2013-01-24 12:25:00,20.2,12.2,30.56,WNW,302,2.0,10.0,70,0.00,,OVC OVC///CB,0.00,WUHU216DAVISVP2,2013-01-24 17:25:00,
2013-01-24 12:30:00,20.2,12.2,30.56,NNW,333,2.0,10.0,70,0.00,,OVC OVC///CB,0.00,WUHU216DAVISVP2,2013-01-24 17:30:00,
2013-01-24 12:35:00,20.0,11.6,30.56,NNW,345,5.0,12.0,69,0.00,,OVC OVC///CB,0.00,WUHU216DAVISVP2,2013-01-24 17:35:00,
2013-01-24 12:40:00,19.8,11.8,30.56,NW,305,4.0,12.0,70,0.00,,OVC OVC///CB,0.00,WUHU216DAVISVP2,2013-01-24 17:40:00,
2013-01-24 12:45:00,19.8,9.4,30.56,NW,314,5.0,12.0,63,0.00,,OVC OVC///CB,0.00,WUHU216DAVISVP2,2013-01-24 17:45:00,
2013-01-24 12:51:00,19.7,9.3,30.56,NW,321,3.0,11.0,63,0.00,,OVC OVC///CB,0.00,WUHU216DAVISVP2,2013-01-24 17:51:00,
2013-01-24 12:56:00,20.2,7.6,30.56,NE,43,5.0,11.0,57,0.00,,OVC OVC///CB,0.00,WUHU216DAVISVP2,2013-01-24 17:56:00,
2013-01-24 13:01:00,20.4,6.1,30.55,WNW,301,7.0,14.0,53,0.00,,OVC OVC///CB,0.00,WUHU216DAVISVP2,2013-01-24 18:01:00,
2013-01-24 13:06:00,20.8,6.5,30.55,North,356,2.0,14.0,53,0.00,,OVC OVC///CB,0.00,WUHU216DAVISVP2,2013-01-24 18:06:00,
2013-01-24 13:11:00,21.1,6.8,30.55,WNW,302,2.0,12.0,53,0.00,,OVC OVC///CB,0.00,WUHU216DAVISVP2,2013-01-24 18:11:00,
2013-01-24 13:16:00,20.9,5.7,30.55,NE,50,4.0,12.0,51,0.00,,OVC OVC///CB,0.00,WUHU216DAVISVP2,2013-01-24 18:16:00,
2013-01-24 13:21:00,21.1,5.9,30.55,NE,55,3.0,12.0,51,0.00,,OVC OVC///CB,0.00,WUHU216DAVISVP2,2013-01-24 18:21:00,
2013-01-24 13:26:00,21.3,7.0,30.55,NNW,335,6.0,12.0,53,0.00,,OVC OVC///CB,0.00,WUHU216DAVISVP2,2013-01-24 18:26:00,
2013-01-24 13:31:00,21.2,6.4,30.55,NNW,330,10.0,12.0,52,0.00,,OVC OVC///CB,0.00,WUHU216DAVISVP2,2013-01-24 18:31:00,
2013-01-24 13:36:00,21.4,5.7,30.55,NNW,342,5.0,11.0,50,0.00,,OVC OVC///CB,0.00,WUHU216DAVISVP2,2013-01-24 18:36:00,
2013-01-24 13:41:00,21.1,5.0,30.55,North,1,10.0,11.0,49,0.00,,OVC OVC///CB,0.00,WUHU216DAVISVP2,2013-01-24 18:41:00,
2013-01-24 13:46:00,21.1,5.5,30.55,North,350,6.0,13.0,50,0.00,,OVC OVC///CB,0.00,WUHU216DAVISVP2,2013-01-24 18:46:00,
2013-01-24 13:51:00,20.9,4.8,30.55,NW,322,4.0,13.0,49,0.00,,OVC OVC///CB,0.00,WUHU216DAVISVP2,2013-01-24 18:51:00,
2013-01-24 13:56:00,21.1,5.9,30.56,North,8,7.0,12.0,51,0.00,,OVC OVC///CB,0.00,WUHU216DAVISVP2,2013-01-24 18:56:00,
2013-01-24 14:01:00,20.5,4.9,30.56,NNE,18,10.0,13.0,50,0.00,,OVC OVC///CB,0.00,WUHU216DAVISVP2,2013-01-24 19:01:00,
2013-01-24 14:06:00,20.3,5.6,30.56,North,352,10.0,13.0,52,0.00,,OVC OVC///CB,0.00,WUHU216DAVISVP2,2013-01-24 19:06:00,
2013-01-24 14:11:00,20.6,5.4,30.56,NNW,340,7.0,13.0,51,0.00,,OVC OVC///CB,0.00,WUHU216DAVISVP2,2013-01-24 19:11:00,
2013-01-24 14:16:00,20.9,7.0,30.56,NNE,27,6.0,13.0,54,0.00,,OVC OVC///CB,0.00,WUHU216DAVISVP2,2013-01-24 19:16:00,
2013-01-24 14:21:00,20.7,5.1,30.56,North,352,7.0,14.0,50,0.00,,OVC OVC///CB,0.00,WUHU216DAVISVP2,2013-01-24 19:21:00,
2013-01-24 14:26:00,20.6,4.6,30.56,NW,311,5.0,14.0,49,0.00,,OVC OVC///CB,0.00,WUHU216DAVISVP2,2013-01-24 19:26:00,
2013-01-24 14:31:00,20.3,5.2,30.56,NW,322,1.0,14.0,51,0.00,,OVC OVC///CB,0.00,WUHU216DAVISVP2,2013-01-24 19:31:00,
2013-01-24 14:36:00,20.1,6.3,30.57,NNW,336,2.0,13.0,54,0.00,,OVC OVC///CB,0.00,WUHU216DAVISVP2,2013-01-24 19:36:00,
2013-01-24 14:41:00,20.0,6.2,30.57,North,352,1.0,11.0,54,0.00,,OVC OVC///CB,0.00,WUHU216DAVISVP2,2013-01-24 19:41:00,
2013-01-24 14:46:00,20.2,6.3,30.57,NNE,19,10.0,10.0,54,0.00,,OVC OVC///CB,0.00,WUHU216DAVISVP2,2013-01-24 19:46:00,
2013-01-24 14:51:00,20.6,5.4,30.57,North,357,5.0,12.0,51,0.00,,OVC OVC///CB,0.00,WUHU216DAVISVP2,2013-01-24 19:51:00,
2013-01-24 14:56:00,20.9,6.2,30.57,NE,49,0.0,12.0,52,0.00,,OVC OVC///CB,0.00,WUHU216DAVISVP2,2013-01-24 19:56:00,
2013-01-24 15:01:00,21.8,7.4,30.57,West,281,4.0,11.0,53,0.00,,OVC OVC///CB,0.00,WUHU216DAVISVP2,2013-01-24 20:01:00,
2013-01-24 15:06:00,21.8,7.0,30.57,North,1,8.0,11.0,52,0.00,,OVC OVC///CB,0.00,WUHU216DAVISVP2,2013-01-24 20:06:00,
2013-01-24 15:11:00,21.2,7.3,30.58,WNW,298,3.0,11.0,54,0.00,,OVC OVC///CB,0.00,WUHU216DAVISVP2,2013-01-24 20:11:00,
2013-01-24 15:16:00,20.5,7.0,30.58,NW,309,3.0,10.0,55,0.00,,OVC OVC///CB,0.00,WUHU216DAVISVP2,2013-01-24 20:16:00,
2013-01-24 15:21:00,19.9,7.3,30.58,NNE,19,2.0,10.0,57,0.00,,OVC OVC///CB,0.00,WUHU216DAVISVP2,2013-01-24 20:21:00,
2013-01-24 15:26:00,19.9,7.7,30.58,NNW,332,3.0,9.0,58,0.00,,OVC OVC///CB,0.00,WUHU216DAVISVP2,2013-01-24 20:26:00,
2013-01-24 15:31:00,19.8,7.6,30.58,NE,42,6.0,8.0,58,0.00,,OVC OVC///CB,0.00,WUHU216DAVISVP2,2013-01-24 20:31:00,
2013-01-24 15:36:00,19.4,5.6,30.58,North,11,4.0,10.0,54,0.00,,OVC OVC///CB,0.00,WUHU216DAVISVP2,2013-01-24 20:36:00,
2013-01-24 15:41:00,19.2,5.4,30.58,NNW,347,4.0,10.0,54,0.00,,OVC OVC///CB,0.00,WUHU216DAVISVP2,2013-01-24 20:41:00,
2013-01-24 15:46:00,19.4,5.2,30.58,NE,37,3.0,9.0,53,0.00,,OVC OVC///CB,0.00,WUHU216DAVISVP2,2013-01-24 20:46:00,
2013-01-24 15:51:00,19.7,5.5,30.58,NNE,20,1.0,9.0,53,0.00,,OVC OVC///CB,0.00,WUHU216DAVISVP2,2013-01-24 20:51:00,
2013-01-24 15:56:00,20.0,7.4,30.58,North,352,2.0,10.0,57,0.00,,OVC OVC///CB,0.00,WUHU216DAVISVP2,2013-01-24 20:56:00,
2013-01-24 16:01:00,20.0,6.6,30.58,NNW,336,6.0,12.0,55,0.00,,OVC OVC///CB,0.00,WUHU216DAVISVP2,2013-01-24 21:01:00,
2013-01-24 16:06:00,19.8,6.4,30.58,NE,51,3.0,12.0,55,0.00,,OVC OVC///CB,0.00,WUHU216DAVISVP2,2013-01-24 21:06:00,
2013-01-24 16:11:00,19.8,6.4,30.58,West,281,3.0,12.0,55,0.00,,OVC OVC///CB,0.00,WUHU216DAVISVP2,2013-01-24 21:11:00,
2013-01-24 16:16:00,19.7,6.3,30.58,ENE,65,4.0,12.0,55,0.00,,OVC OVC///CB,0.00,WUHU216DAVISVP2,2013-01-24 21:16:00,
2013-01-24 16:21:00,19.5,6.5,30.58,ENE,60,3.0,12.0,56,0.00,,OVC OVC///CB,0.00,WUHU216DAVISVP2,2013-01-24 21:21:00,
2013-01-24 16:26:00,19.3,6.7,30.58,NNW,345,3.0,11.0,57,0.00,,OVC OVC///CB,0.00,WUHU216DAVISVP2,2013-01-24 21:26:00,
2013-01-24 16:31:00,18.9,6.7,30.58,North,360,3.0,11.0,58,0.00,,OVC OVC///CB,0.00,WUHU216DAVISVP2,2013-01-24 21:31:00,
2013-01-24 16:36:00,18.6,6.4,30.59,NE,36,2.0,9.0,58,0.00,,OVC OVC///CB,0.00,WUHU216DAVISVP2,2013-01-24 21:36:00,
2013-01-24 16:41:00,18.4,6.3,30.59,NE,51,1.0,9.0,58,0.00,,OVC OVC///CB,0.00,WUHU216DAVISVP2,2013-01-24 21:41:00,
2013-01-24 16:46:00,18.3,6.2,30.59,NE,44,1.0,10.0,58,0.00,,OVC OVC///CB,0.00,WUHU216DAVISVP2,2013-01-24 21:46:00,
2013-01-24 16:51:00,18.3,6.2,30.59,WNW,293,0.0,10.0,58,0.00,,OVC OVC///CB,0.00,WUHU216DAVISVP2,2013-01-24 21:51:00,
2013-01-24 16:56:00,18.2,5.7,30.59,WNW,302,3.0,9.0,57,0.00,,OVC OVC///CB,0.00,WUHU216DAVISVP2,2013-01-24 21:56:00,
2013-01-24 17:01:00,18.1,4.8,30.59,NNW,336,2.0,9.0,55,0.00,,OVC OVC///CB,0.00,WUHU216DAVISVP2,2013-01-24 22:01:00,
2013-01-24 17:06:00,17.8,4.5,30.59,NNW,344,1.0,8.0,55,0.00,,OVC OVC///CB,0.00,WUHU216DAVISVP2,2013-01-24 22:06:00,
2013-01-24 17:11:00,17.6,4.7,30.59,North,5,4.0,7.0,56,0.00,,OVC OVC///CB,0.00,WUHU216DAVISVP2,2013-01-24 22:11:00,
2013-01-24 17:16:00,17.4,4.9,30.59,NNW,342,5.0,8.0,57,0.00,,OVC OVC///CB,0.00,WUHU216DAVISVP2,2013-01-24 22:16:00,
2013-01-24 17:21:00,17.1,5.0,30.59,NW,326,2.0,8.0,58,0.00,,OVC OVC///CB,0.00,WUHU216DAVISVP2,2013-01-24 22:21:00,
2013-01-24 17:26:00,16.9,5.2,30.59,NNW,331,2.0,8.0,59,0.00,,OVC OVC///CB,0.00,WUHU216DAVISVP2,2013-01-24 22:26:00,
2013-01-24 17:31:00,16.8,5.1,30.60,NNW,332,3.0,9.0,59,0.00,,OVC OVC///CB,0.00,WUHU216DAVISVP2,2013-01-24 22:31:00,
2013-01-24 17:36:00,16.6,5.3,30.60,North,350,0.0,9.0,60,0.00,,OVC OVC///CB,0.00,WUHU216DAVISVP2,2013-01-24 22:36:00,
2013-01-24 17:41:00,16.4,5.1,30.60,WNW,298,1.0,9.0,60,0.00,,OVC OVC///CB,0.00,WUHU216DAVISVP2,2013-01-24 22:41:00,
2013-01-24 17:46:00,16.3,5.4,30.60,West,269,0.0,9.0,61,0.00,,OVC OVC///CB,0.00,WUHU216DAVISVP2,2013-01-24 22:46:00,
2013-01-24 17:51:00,16.1,5.2,30.60,NW,304,0.0,4.0,61,0.00,,OVC OVC///CB,0.00,WUHU216DAVISVP2,2013-01-24 22:51:00,
2013-01-24 17:56:00,15.9,5.4,30.60,North,350,0.0,4.0,62,0.00,,OVC OVC///CB,0.00,WUHU216DAVISVP2,2013-01-24 22:56:00,
2013-01-24 18:01:00,15.7,5.5,30.61,NNW,340,0.0,3.0,63,0.00,,OVC OVC///CB,0.00,WUHU216DAVISVP2,2013-01-24 23:01:00,
2013-01-24 18:06:00,15.4,5.2,30.61,NNE,30,0.0,1.0,63,0.00,,OVC OVC///CB,0.00,WUHU216DAVISVP2,2013-01-24 23:06:00,
2013-01-24 18:11:00,15.2,5.4,30.61,North,354,0.0,1.0,64,0.00,,OVC OVC///CB,0.00,WUHU216DAVISVP2,2013-01-24 23:11:00,
2013-01-24 18:16:00,15.1,5.6,30.61,North,354,0.0,1.0,65,0.00,,OVC OVC///CB,0.00,WUHU216DAVISVP2,2013-01-24 23:16:00,
2013-01-24 18:21:00,14.8,5.0,30.61,North,354,0.0,1.0,64,0.00,,OVC OVC///CB,0.00,WUHU216DAVISVP2,2013-01-24 23:21:00,
2013-01-24 18:26:00,14.5,5.1,30.61,North,354,0.0,1.0,65,0.00,,OVC OVC///CB,0.00,WUHU216DAVISVP2,2013-01-24 23:26:00,
2013-01-24 18:31:00,14.1,5.3,30.61,North,354,0.0,0.0,67,0.00,,OVC OVC///CB,0.00,WUHU216DAVISVP2,2013-01-24 23:31:00,
2013-01-24 18:36:00,13.9,5.5,30.61,North,354,0.0,0.0,68,0.00,,OVC OVC///CB,0.00,WUHU216DAVISVP2,2013-01-24 23:36:00,
2013-01-24 18:41:00,13.8,5.0,30.61,North,354,0.0,0.0,67,0.00,,OVC OVC///CB,0.00,WUHU216DAVISVP2,2013-01-24 23:41:00,
2013-01-24 18:46:00,13.7,4.9,30.61,North,354,0.0,0.0,67,0.00,,OVC OVC///CB,0.00,WUHU216DAVISVP2,2013-01-24 23:46:00,
2013-01-24 18:51:00,13.6,5.2,30.61,North,354,0.0,0.0,68,0.00,,OVC OVC///CB,0.00,WUHU216DAVISVP2,2013-01-24 23:51:00,
2013-01-24 18:56:00,13.6,5.5,30.61,NNW,339,0.0,1.0,69,0.00,,OVC OVC///CB,0.00,WUHU216DAVISVP2,2013-01-24 23:56:00,
2013-01-24 19:01:00,13.6,5.5,30.61,NNW,342,0.0,1.0,69,0.00,,OVC OVC///CB,0.00,WUHU216DAVISVP2,2013-01-25 00:01:00,
2013-01-24 19:06:00,13.5,5.7,30.61,NNE,13,0.0,1.0,70,0.00,,OVC OVC///CB,0.00,WUHU216DAVISVP2,2013-01-25 00:06:00,
2013-01-24 19:11:00,13.4,5.6,30.62,North,354,0.0,1.0,70,0.00,,OVC OVC///CB,0.00,WUHU216DAVISVP2,2013-01-25 00:11:00,
2013-01-24 19:16:00,13.1,5.6,30.62,North,354,0.0,1.0,71,0.00,,OVC OVC///CB,0.00,WUHU216DAVISVP2,2013-01-25 00:16:00,
2013-01-24 19:21:00,12.8,5.3,30.61,North,354,0.0,1.0,71,0.00,,OVC OVC///CB,0.00,WUHU216DAVISVP2,2013-01-25 00:21:00,
2013-01-24 19:26:00,12.6,5.4,30.61,North,354,0.0,1.0,72,0.00,,OVC OVC///CB,0.00,WUHU216DAVISVP2,2013-01-25 00:26:00,
2013-01-24 19:31:00,12.2,5.4,30.61,North,354,0.0,0.0,73,0.00,,OVC OVC///CB,0.00,WUHU216DAVISVP2,2013-01-25 00:31:00,
2013-01-24 19:36:00,12.1,5.5,30.61,North,354,0.0,0.0,74,0.00,,OVC OVC///CB,0.00,WUHU216DAVISVP2,2013-01-25 00:36:00,
2013-01-24 19:41:00,12.2,5.6,30.61,North,354,0.0,1.0,74,0.00,,OVC OVC///CB,0.00,WUHU216DAVISVP2,2013-01-25 00:41:00,
2013-01-24 19:46:00,12.4,5.5,30.61,North,354,0.0,1.0,73,0.00,,OVC OVC///CB,0.00,WUHU216DAVISVP2,2013-01-25 00:46:00,
2013-01-24 19:51:00,12.2,5.6,30.61,North,354,0.0,1.0,74,0.00,,OVC OVC///CB,0.00,WUHU216DAVISVP2,2013-01-25 00:51:00,
2013-01-24 19:56:00,12.1,5.8,30.61,North,354,0.0,1.0,75,0.00,,OVC OVC///CB,0.00,WUHU216DAVISVP2,2013-01-25 00:56:00,
2013-01-24 20:01:00,12.2,5.9,30.61,North,354,0.0,1.0,75,0.00,,OVC OVC///CB,0.00,WUHU216DAVISVP2,2013-01-25 01:01:00,
2013-01-24 20:06:00,12.2,5.9,30.61,North,354,0.0,0.0,75,0.00,,OVC OVC///CB,0.00,WUHU216DAVISVP2,2013-01-25 01:06:00,
2013-01-24 20:11:00,12.1,6.1,30.61,North,354,0.0,0.0,76,0.00,,OVC OVC///CB,0.00,WUHU216DAVISVP2,2013-01-25 01:11:00,
2013-01-24 20:16:00,12.0,6.0,30.61,North,354,0.0,0.0,76,0.00,,OVC OVC///CB,0.00,WUHU216DAVISVP2,2013-01-25 01:16:00,
2013-01-24 20:21:00,11.8,5.8,30.60,North,354,0.0,0.0,76,0.00,,OVC OVC///CB,0.00,WUHU216DAVISVP2,2013-01-25 01:21:00,
2013-01-24 20:26:00,11.4,5.2,30.60,North,354,0.0,0.0,75,0.00,,OVC OVC///CB,0.00,WUHU216DAVISVP2,2013-01-25 01:26:00,
2013-01-24 20:31:00,11.0,5.0,30.60,North,354,0.0,0.0,76,0.00,,OVC OVC///CB,0.00,WUHU216DAVISVP2,2013-01-25 01:31:00,
2013-01-24 20:36:00,10.9,5.2,30.60,North,354,0.0,0.0,77,0.00,,OVC OVC///CB,0.00,WUHU216DAVISVP2,2013-01-25 01:36:00,
2013-01-24 20:41:00,10.9,5.5,30.60,North,354,0.0,0.0,78,0.00,,OVC OVC///CB,0.00,WUHU216DAVISVP2,2013-01-25 01:41:00,
2013-01-24 20:46:00,10.7,5.0,30.60,North,354,0.0,0.0,77,0.00,,OVC OVC///CB,0.00,WUHU216DAVISVP2,2013-01-25 01:46:00,
2013-01-24 20:51:00,10.6,5.2,30.60,North,354,0.0,0.0,78,0.00,,OVC OVC///CB,0.00,WUHU216DAVISVP2,2013-01-25 01:51:00,
2013-01-24 20:56:00,10.7,5.9,30.60,North,354,0.0,0.0,80,0.00,,OVC OVC///CB,0.00,WUHU216DAVISVP2,2013-01-25 01:56:00,
2013-01-24 21:01:00,10.6,5.8,30.59,North,354,0.0,0.0,80,0.00,,OVC OVC///CB,0.00,WUHU216DAVISVP2,2013-01-25 02:01:00,
2013-01-24 21:06:00,10.6,5.8,30.59,North,354,0.0,0.0,80,0.00,,OVC OVC///CB,0.00,WUHU216DAVISVP2,2013-01-25 02:06:00,
2013-01-24 21:11:00,10.5,5.7,30.59,North,354,0.0,0.0,80,0.00,,OVC OVC///CB,0.00,WUHU216DAVISVP2,2013-01-25 02:11:00,
2013-01-24 21:16:00,10.5,5.7,30.59,North,354,0.0,0.0,80,0.00,,OVC OVC///CB,0.00,WUHU216DAVISVP2,2013-01-25 02:16:00,
2013-01-24 21:21:00,10.7,6.4,30.59,North,354,0.0,0.0,82,0.00,,OVC OVC///CB,0.00,WUHU216DAVISVP2,2013-01-25 02:21:00,
2013-01-24 21:26:00,10.9,7.1,30.58,North,354,0.0,0.0,84,0.00,,OVC OVC///CB,0.00,WUHU216DAVISVP2,2013-01-25 02:26:00,
2013-01-24 21:31:00,10.9,6.6,30.59,North,354,0.0,0.0,82,0.00,,OVC OVC///CB,0.00,WUHU216DAVISVP2,2013-01-25 02:31:00,
2013-01-24 21:36:00,10.8,6.2,30.59,North,354,0.0,0.0,81,0.00,,OVC OVC///CB,0.00,WUHU216DAVISVP2,2013-01-25 02:36:00,
2013-01-24 21:41:00,10.6,6.3,30.59,North,354,0.0,0.0,82,0.00,,OVC OVC///CB,0.00,WUHU216DAVISVP2,2013-01-25 02:41:00,
2013-01-24 21:46:00,10.7,6.4,30.59,North,354,0.0,0.0,82,0.00,,OVC OVC///CB,0.00,WUHU216DAVISVP2,2013-01-25 02:46:00,
2013-01-24 21:51:00,11.0,6.7,30.59,North,354,0.0,0.0,82,0.00,,OVC OVC///CB,0.00,WUHU216DAVISVP2,2013-01-25 02:51:00,
2013-01-24 21:56:00,11.2,6.9,30.59,North,354,0.0,0.0,82,0.00,,OVC OVC///CB,0.00,WUHU216DAVISVP2,2013-01-25 02:56:00,
2013-01-24 22:01:00,11.3,7.2,30.59,North,354,0.0,0.0,83,0.00,,OVC OVC///CB,0.00,WUHU216DAVISVP2,2013-01-25 03:01:00,
2013-01-24 22:06:00,11.2,7.1,30.60,North,354,0.0,0.0,83,0.00,,OVC OVC///CB,0.00,WUHU216DAVISVP2,2013-01-25 03:06:00,
2013-01-24 22:11:00,11.1,7.0,30.60,North,354,0.0,0.0,83,0.00,,OVC OVC///CB,0.00,WUHU216DAVISVP2,2013-01-25 03:11:00,
2013-01-24 22:16:00,11.0,6.9,30.60,North,354,0.0,0.0,83,0.00,,OVC OVC///CB,0.00,WUHU216DAVISVP2,2013-01-25 03:16:00,
2013-01-24 22:21:00,11.0,6.9,30.60,North,354,0.0,0.0,83,0.00,,OVC OVC///CB,0.00,WUHU216DAVISVP2,2013-01-25 03:21:00,
2013-01-24 22:26:00,10.8,6.7,30.60,North,354,0.0,0.0,83,0.00,,OVC OVC///CB,0.00,WUHU216DAVISVP2,2013-01-25 03:26:00,
2013-01-24 22:31:00,10.9,7.1,30.60,North,354,0.0,0.0,84,0.00,,OVC OVC///CB,0.00,WUHU216DAVISVP2,2013-01-25 03:31:00,
2013-01-24 22:36:00,11.1,7.3,30.59,North,354,0.0,0.0,84,0.00,,OVC OVC///CB,0.00,WUHU216DAVISVP2,2013-01-25 03:36:00,
2013-01-24 22:41:00,11.5,7.7,30.59,North,354,0.0,0.0,84,0.00,,OVC OVC///CB,0.00,WUHU216DAVISVP2,2013-01-25 03:41:00,
2013-01-24 22:46:00,11.6,7.5,30.59,North,354,0.0,0.0,83,0.00,,OVC OVC///CB,0.00,WUHU216DAVISVP2,2013-01-25 03:46:00,
2013-01-24 22:51:00,11.6,7.5,30.59,North,354,0.0,0.0,83,0.00,,OVC OVC///CB,0.00,WUHU216DAVISVP2,2013-01-25 03:51:00,
2013-01-24 22:56:00,11.8,7.7,30.59,North,354,0.0,0.0,83,0.00,,OVC OVC///CB,0.00,WUHU216DAVISVP2,2013-01-25 03:56:00,
2013-01-24 23:01:00,11.9,7.8,30.59,North,354,0.0,0.0,83,0.00,,OVC OVC///CB,0.00,WUHU216DAVISVP2,2013-01-25 04:01:00,
2013-01-24 23:06:00,11.9,8.1,30.59,North,354,0.0,0.0,84,0.00,,OVC OVC///CB,0.00,WUHU216DAVISVP2,2013-01-25 04:06:00,
2013-01-24 23:11:00,11.8,8.0,30.59,North,354,0.0,0.0,84,0.00,,OVC OVC///CB,0.00,WUHU216DAVISVP2,2013-01-25 04:11:00,
2013-01-24 23:16:00,12.1,8.3,30.58,SE,135,1.0,1.0,84,0.00,,OVC OVC///CB,0.00,WUHU216DAVISVP2,2013-01-25 04:16:00,
2013-01-24 23:21:00,12.6,8.0,30.58,SE,127,0.0,1.0,81,0.00,,OVC OVC///CB,0.00,WUHU216DAVISVP2,2013-01-25 04:21:00,
2013-01-24 23:26:00,12.9,7.7,30.58,ESE,114,0.0,1.0,79,0.00,,OVC OVC///CB,0.00,WUHU216DAVISVP2,2013-01-25 04:26:00,
2013-01-24 23:31:00,13.1,7.4,30.58,ESE,113,2.0,3.0,77,0.00,,OVC OVC///CB,0.00,WUHU216DAVISVP2,2013-01-25 04:31:00,
2013-01-24 23:36:00,13.2,7.5,30.58,ESE,117,0.0,3.0,77,0.00,,OVC OVC///CB,0.00,WUHU216DAVISVP2,2013-01-25 04:36:00,
2013-01-24 23:41:00,13.2,7.5,30.58,ESE,117,0.0,2.0,77,0.00,,OVC OVC///CB,0.00,WUHU216DAVISVP2,2013-01-25 04:41:00,
2013-01-24 23:46:00,13.2,7.2,30.58,SE,130,1.0,4.0,76,0.00,,OVC OVC///CB,0.00,WUHU216DAVISVP2,2013-01-25 04:46:00,
2013-01-24 23:51:00,13.2,6.9,30.58,SE,130,0.0,5.0,75,0.00,,OVC OVC///CB,0.00,WUHU216DAVISVP2,2013-01-25 04:51:00,
2013-01-24 23:56:00,13.1,6.8,30.58,ESE,115,0.0,5.0,75,0.00,,OVC OVC///CB,0.00,WUHU216DAVISVP2,2013-01-25 04:56:00,